This is the latest recevied weather packets stored in our database for station/object KD8OZS. If no packets are shown the sender has not sent any weather packets the latest 10 day(s).
| Time | Temp. | Humidity | Pressure | Rain* | Wind** | Luminosity | Snow |
|---|---|---|---|---|---|---|---|
| 1777334423 | 18.33° C | 75% | 1008 hPa | 0 mm | - | 0 W/m² | - |
| 1777334120 | 18.33° C | 72% | 1008.2 hPa | 0 mm | - | 1 W/m² | - |
| 1777333819 | 18.33° C | 71% | 1008.1 hPa | 0 mm | - | 2 W/m² | - |
| 1777333516 | 18.89° C | 72% | 1008.1 hPa | 0 mm | - | 2 W/m² | - |
| 1777333212 | 18.89° C | 70% | 1008.3 hPa | 0 mm | - | 3 W/m² | - |
| 1777332911 | 18.89° C | 71% | 1008.3 hPa | 0 mm | - | 4 W/m² | - |
| 1777332609 | 19.44° C | 72% | 1008 hPa | 0 mm | - | 3 W/m² | - |
| 1777332305 | 20° C | 64% | 1007.7 hPa | 0 mm | - | 5 W/m² | - |
| 1777332001 | 20° C | 61% | 1008.1 hPa | 0 mm | - | 6 W/m² | - |
| 1777331699 | 20.56° C | 64% | 1007.8 hPa | 0 mm | - | 9 W/m² | - |
| 1777331396 | 20.56° C | 60% | 1007.5 hPa | 0 mm | - | 11 W/m² | - |
| 1777331094 | 20.56° C | 59% | 1007.7 hPa | 0 mm | - | 13 W/m² | - |
| 1777330790 | 21.11° C | 59% | 1007.6 hPa | 0 mm | - | 16 W/m² | - |
| 1777330488 | 21.11° C | 56% | 1007.5 hPa | 0 mm | - | 20 W/m² | - |
| 1777330185 | 21.67° C | 55% | 1007.6 hPa | 0 mm | - | 22 W/m² | - |
| 1777329883 | 21.67° C | 55% | 1007.6 hPa | 0 mm | - | 27 W/m² | - |
| 1777329581 | 21.67° C | 54% | 1007.5 hPa | 0 mm | - | 32 W/m² | - |
| 1777329279 | 22.22° C | 53% | 1007.4 hPa | 0 mm | - | 37 W/m² | - |
| 1777328976 | 22.22° C | 52% | 1007.6 hPa | 0 mm | - | 40 W/m² | - |
| 1777328675 | 22.22° C | 53% | 1007.5 hPa | 0 mm | - | 39 W/m² | - |
| 1777328371 | 22.22° C | 52% | 1007.5 hPa | 0 mm | - | 45 W/m² | - |
| 1777328070 | 22.78° C | 51% | 1007.4 hPa | 0 mm | - | 51 W/m² | - |
| 1777327768 | 22.78° C | 51% | 1007.4 hPa | 0 mm | - | 56 W/m² | - |
| 1777327465 | 22.22° C | 51% | 1007.5 hPa | 0 mm | - | 61 W/m² | - |
| 1777327162 | 22.78° C | 53% | 1007.4 hPa | 0 mm | - | 67 W/m² | - |
* Rain latest hour (hover to see other rain measurements)
** Current wind speed in m/s (hover to see current wind gust speed)